Погода в Обильном

Россия / Оренбургская область     51°18′52″N   60°50′21″E
темп.,
°C
ветер,
м/с
пор.,
м/с
влажн.,
%
обл.,
%
осадки,
мм/ч
давл.,
гПа
погр.,
м
1 декабря, ср
ср123:00−5ю81875100 0.0 1018273
02:00−2ю81975100 0.0 1016373
05:00−1ю92074100 0.0 1014367
08:00−1ю71975100 0.0 1013353
11:000ююв92178100 0.0 1011402
14:00+1ююв102280100 0.0 1009447
17:00+1ююв112276100 0.0 1006464
20:00+2ююв112476100 0.0 1004506
2 декабря, чт
чт223:00+1ю9217597 0.0 1003500
02:000ю817805 0.0 1002374
05:00−2ююз5118919 0.0 1002174
08:00−3зюз4893100 0.0 1003117
11:00+1зюз48100100 0.3 1004228
14:00+1зсз71198100 0.7 1006504
17:00−1зсз71189100 0.7 1009598
20:00−4зсз613915 0.0 1012266
3 декабря, пт
пт323:00−6зсз613875 0.0 1014254
02:00−6з512895 0.0 1016222
05:00−6зюз512915 0.0 1018229
08:00−6з512945 0.0 1019237
11:00−5зюз6149463 0.0 1022407
14:00−4з714915 0.0 1022462
17:00−4зюз7148968 0.0 1024386
20:00−5зюз715895 0.0 1025321
4 декабря, сб
сб423:00−4з6148969 0.0 1026298
02:00−5зюз5138973 0.0 1028236
05:00−5зюз5119066 0.0 1029179
08:00−5зюз4108960 0.0 1030140
11:00−4зюз488970 0.0 1031151
14:00−2юз4888100 0.0 1030178
17:00−4зюз46888 0.0 103183
20:00−5юз468857 0.0 103175
5 декабря, вс
вс523:00−6юз3687100 0.0 103067
02:00−6юз468792 0.0 102983
05:00−7юз4885100 0.0 1029100
08:00−8юз4685100 0.0 102871
11:00−6юз468453 0.0 102798
14:00−5юз478371 0.0 1026119
17:00−7зюз35855 0.0 102653
20:00−9зюз338637 0.0 102630